FW8355 Weather Reports


time (UTC)temp
C
wind
direction
speed
KPH
gust
KPH
rain 1hr
cm
rain 24hr
cm
rain mn
cm
humidity
%
barometer
mb
20260507214057 20 45 4.8 11.3 0.00 0.36 0.33 57 1008.4
20260507213036 19 68 4.8 9.7 0.00 0.36 0.33 59 1008.4
20260507212017 20 45 4.8 11.3 0.00 0.38 0.33 59 1008.2
20260507211017 20 68 6.4 11.3 0.00 0.38 0.33 57 1008.4
20260507210019 20 68 8.0 14.5 0.00 0.38 0.33 54 1008.2
20260507205016 21 90 8.0 22.5 0.00 0.38 0.33 51 1008.1
20260507204016 21 90 6.4 22.5 0.00 0.38 0.33 46 1008.0
20260507203037 21 23 4.8 16.1 0.00 0.38 0.33 43 1007.7
20260507202017 21 68 9.7 17.7 0.00 0.41 0.33 46 1007.9
20260507201037 21 68 12.9 24.1 0.00 0.41 0.33 45 1007.7
20260507200017 21 45 11.3 20.9 0.00 0.41 0.33 50 1007.7
20260507195016 21 45 6.4 19.3 0.00 0.43 0.33 58 1008.0
20260507194016 21 68 8.0 17.7 0.00 0.43 0.33 59 1008.2
20260507193016 21 68 11.3 17.7 0.00 0.48 0.33 57 1008.4
20260507192016 22 90 6.4 12.9 0.00 0.48 0.33 54 1008.2
20260507191016 21 90 3.2 11.3 0.00 0.48 0.33 57 1007.9
20260507190017 21 0.0 3.2 0.00 0.48 0.33 66 1008.0
20260507185016 21 23 3.2 4.8 0.00 0.48 0.33 67 1007.6
20260507184036 21 23 3.2 9.7 0.00 0.48 0.33 69 1007.5
20260507183016 20 0 1.6 4.8 0.00 0.48 0.33 70 1007.2
20260507182016 21 0.0 1.6 0.00 0.48 0.33 69 1007.4
20260507181016 21 0.0 1.6 0.00 0.48 0.33 68 1007.4
20260507180038 21 0.0 3.2 0.00 0.48 0.33 67 1007.5
20260507175037 21 0.0 0.0 0.00 0.48 0.33 64 1007.6
20260507174036 21 23 1.6 4.8 0.00 0.48 0.33 63 1007.7
20260507173016 21 0.0 0.0 0.00 0.48 0.33 63 1007.7
20260507172016 22 0.0 1.6 0.00 0.48 0.33 62 1007.7
20260507171016 22 90 1.6 4.8 0.00 0.48 0.33 60 1007.6
20260507170017 22 68 1.6 3.2 0.00 0.48 0.33 59 1007.7
20260507165016 23 90 1.6 6.4 0.00 0.48 0.33 58 1007.7
20260507164016 23 113 3.2 8.0 0.00 0.48 0.33 55 1007.6
20260507163016 24 135 1.6 6.4 0.00 0.48 0.33 54 1007.6
20260507162016 25 203 4.8 9.7 0.00 0.48 0.33 53 1007.5
20260507161016 25 203 6.4 12.9 0.00 0.48 0.33 52 1007.6
20260507160016 26 203 4.8 9.7 0.00 0.48 0.33 51 1007.8
20260507155016 26 203 6.4 12.9 0.00 0.48 0.33 50 1007.9
20260507154016 26 225 3.2 8.0 0.00 0.48 0.33 50 1007.9
20260507153016 26 203 1.6 6.4 0.00 0.48 0.33 50 1007.9
20260507152036 26 225 4.8 11.3 0.00 0.48 0.33 50 1007.9
20260507151017 27 225 3.2 9.7 0.00 0.48 0.33 49 1008.0
20260507150016 27 203 4.8 9.7 0.00 0.48 0.33 48 1008.1
20260507145057 27 90 6.4 12.9 0.00 0.48 0.33 44 1008.1
20260507144015 26 68 3.2 11.3 0.00 0.48 0.33 42 1008.2
20260507143016 26 158 1.6 6.4 0.00 0.48 0.33 43 1008.2
20260507142016 26 68 3.2 9.7 0.00 0.48 0.33 41 1008.3
20260507141015 26 23 6.4 12.9 0.00 0.48 0.33 42 1008.5
20260507140016 26 113 1.6 4.8 0.00 0.48 0.33 46 1008.5
20260507135016 26 0 4.8 11.3 0.00 0.48 0.33 45 1008.5
20260507134016 26 68 3.2 9.7 0.00 0.48 0.33 44 1008.7
20260507133015 26 23 3.2 12.9 0.00 0.48 0.33 44 1008.9
20260507132016 26 113 4.8 12.9 0.00 0.48 0.33 45 1009.1
20260507131015 26 45 1.6 6.4 0.00 0.48 0.33 46 1009.2
20260507130016 25 113 6.4 11.3 0.00 0.48 0.33 47 1009.5
20260507125015 25 113 4.8 9.7 0.00 0.48 0.33 48 1009.8
20260507124016 25 203 1.6 6.4 0.00 0.48 0.33 48 1009.7
20260507123015 25 203 4.8 9.7 0.00 0.48 0.33 49 1009.8
20260507122016 25 113 3.2 9.7 0.00 0.48 0.33 52 1010.0
20260507121035 25 113 6.4 9.7 0.00 0.48 0.33 52 1010.0
20260507120016 25 90 3.2 9.7 0.00 0.48 0.33 48 1010.1
20260507115015 25 113 4.8 11.3 0.00 0.48 0.33 50 1010.2
20260507114016 25 203 3.2 9.7 0.00 0.48 0.33 50 1010.4
20260507113016 25 203 3.2 9.7 0.00 0.48 0.33 51 1010.5
20260507112017 25 180 1.6 8.0 0.00 0.48 0.33 53 1010.6
20260507111017 24 113 4.8 11.3 0.00 0.48 0.33 56 1010.8
20260507110017 25 113 1.6 6.4 0.00 0.48 0.33 57 1011.1
20260507105037 25 203 1.6 6.4 0.00 0.48 0.33 59 1011.2
20260507104017 23 225 1.6 4.8 0.00 0.48 0.33 59 1011.3
20260507103017 23 203 3.2 8.0 0.00 0.48 0.33 61 1011.5
20260507102017 22 135 1.6 6.4 0.00 0.48 0.33 62 1011.4
20260507101017 22 113 3.2 9.7 0.00 0.48 0.33 63 1011.5
20260507100018 22 90 3.2 9.7 0.00 0.48 0.33 64 1011.4
20260507095017 22 135 4.8 11.3 0.00 0.48 0.33 63 1011.4
20260507094017 22 113 4.8 9.7 0.00 0.48 0.33 63 1011.5
20260507093017 22 113 4.8 9.7 0.00 0.48 0.33 63 1011.4
20260507092017 22 293 1.6 4.8 0.00 0.48 0.33 63 1011.5
20260507091037 22 203 1.6 6.4 0.00 0.48 0.33 66 1011.5
20260507090017 21 135 1.6 6.4 0.00 0.48 0.33 72 1011.5
20260507085017 20 0.0 0.0 0.00 0.48 0.33 73 1011.7
20260507084017 20 113 1.6 4.8 0.00 0.48 0.33 74 1011.7
20260507083017 20 0.0 1.6 0.00 0.48 0.33 75 1011.7
20260507082037 19 0.0 3.2 0.00 0.48 0.33 79 1011.6
20260507081017 18 113 3.2 6.4 0.00 0.48 0.33 77 1011.5
20260507080017 18 113 4.8 9.7 0.00 0.48 0.33 78 1011.3
20260507075037 19 90 4.8 8.0 0.00 0.48 0.33 76 1011.2
20260507074037 20 68 4.8 9.7 0.00 0.48 0.33 68 1011.2
20260507073017 20 68 6.4 12.9 0.00 0.48 0.33 67 1011.1
20260507072017 18 45 6.4 12.9 0.00 0.48 0.33 73 1011.1
20260507071017 18 23 9.7 19.3 0.00 0.48 0.33 72 1011.1
20260507070017 18 23 3.2 6.4 0.00 0.48 0.33 76 1011.3
20260507065017 17 45 4.8 9.7 0.00 0.48 0.33 76 1011.3
20260507064017 17 68 4.8 14.5 0.00 0.48 0.33 77 1011.3
20260507063017 16 23 6.4 9.7 0.00 0.48 0.33 81 1011.3
20260507062017 16 68 1.6 3.2 0.00 0.48 0.33 84 1011.4
20260507061017 16 0.0 4.8 0.00 0.48 0.33 81 1011.4
20260507060017 16 45 3.2 8.0 0.00 0.48 0.33 82 1011.3
20260507055017 16 68 3.2 8.0 0.00 0.48 0.33 82 1011.2
20260507054057 16 45 8.0 16.1 0.00 0.48 0.33 82 1011.1
20260507053017 15 23 11.3 17.7 0.03 0.48 0.33 85 1011.1
20260507052017 15 23 8.0 16.1 0.03 0.48 0.33 86 1011.2
20260507051017 15 23 11.3 25.7 0.03 0.48 0.33 85 1011.3
20260507050018 15 23 11.3 25.7 0.03 0.48 0.33 87 1011.2
20260507045037 15 45 12.9 24.1 0.03 0.48 0.33 87 1011.1
20260507044017 15 68 6.4 17.7 0.03 0.48 0.33 88 1011.2
20260507043037 15 68 9.7 17.7 0.00 0.46 0.33 88 1011.0
20260507042016 15 68 6.4 12.9 0.00 0.46 0.33 89 1011.2
20260507041017 15 45 6.4 12.9 0.00 0.46 0.33 89 1011.3
20260507040037 15 45 6.4 11.3 0.00 0.46 0.33 88 1011.5
20260507035017 15 23 9.7 17.7 0.00 0.46 0.33 88 1011.7
20260507034016 14 23 9.7 19.3 0.00 0.46 0.33 89 1012.1
20260507033016 14 45 6.4 14.5 0.00 0.46 0.33 90 1012.3
20260507032036 14 45 1.6 12.9 0.03 0.46 0.33 90 1012.7
20260507031017 14 68 1.6 9.7 0.03 0.46 0.33 91 1012.6
20260507030017 14 45 4.8 9.7 0.05 0.46 0.33 91 1012.4
20260507025016 14 45 4.8 9.7 0.08 0.46 0.33 92 1012.3
20260507024017 13 68 4.8 9.7 0.10 0.46 0.33 91 1012.2
20260507023017 14 68 3.2 8.0 0.13 0.46 0.33 92 1012.2
20260507022036 13 0 6.4 11.3 0.10 0.43 0.30 92 1012.3
20260507021017 13 68 4.8 9.7 0.10 0.43 0.30 92 1012.3
20260507020016 13 338 4.8 11.3 0.05 0.41 0.25 92 1012.1
20260507015016 13 338 1.6 4.8 0.05 0.38 0.23 91 1012.1
20260507014016 13 135 1.6 1.6 0.03 0.36 0.23 91 1012.2
20260507013016 13 0.0 3.2 0.00 0.33 0.20 92 1012.1
20260507012016 13 0.0 3.2 0.00 0.33 0.20 92 1012.0
20260507011016 13 0.0 1.6 0.03 0.33 0.20 91 1011.9
20260507010036 13 68 3.2 8.0 0.05 0.33 0.20 92 1011.8
20260507005016 13 68 3.2 6.4 0.05 0.33 0.20 92 1011.7
20260507004016 13 0.0 3.2 0.10 0.33 0.20 92 1011.8
20260507003016 13 23 4.8 9.7 0.13 0.33 0.20 91 1012.0
20260507002016 13 23 8.0 16.1 0.15 0.33 0.20 91 1012.2
20260507001017 13 45 8.0 19.3 0.13 0.33 0.18 90 1012.3
20260507000036 13 68 3.2 9.7 0.13 0.30 0.15 91 1012.1
20260506235016 13 68 1.6 4.8 0.10 0.28 0.15 90 1012.2
20260506234036 13 23 3.2 6.4 0.05 0.23 0.10 90 1012.5
20260506233016 13 68 4.8 8.0 0.05 0.23 0.08 90 1012.7
20260506232016 14 113 4.8 12.9 0.05 0.20 0.05 90 1012.8
20260506231016 14 23 3.2 6.4 0.05 0.20 0.05 89 1012.6
20260506230016 13 23 6.4 14.5 0.05 0.18 0.05 90 1012.9
20260506225016 13 45 3.2 8.0 0.05 0.18 0.05 90 1013.2
20260506224016 14 45 4.8 9.7 0.05 0.18 0.05 90 1013.1
20260506223016 14 68 1.6 6.4 0.05 0.15 0.03 90 1013.1
20260506222016 14 45 6.4 14.5 0.05 0.15 0.03 90 1012.8
20260506221016 14 23 6.4 12.9 0.05 0.15 0.00 90 1012.8
20260506220016 14 45 4.8 11.3 0.05 0.15 0.15 90 1012.9
20260506215016 14 23 1.6 4.8 0.05 0.15 0.15 90 1012.9